Regional Weather Roundup
Issued by NWS

Home | Current Version | Previous Version | Text Only | Print | Product List | Glossary On
Versions: 1 2 3 4 5 6 7 8 9 10 11 12 13 14 15 16 17 18 19 20 21 22 23 24 25 26 27 28 29 30 31 32 33 34 35 36 37 38 39 40 41 42 43 44 45 46 47 48 49 50
763
ASUS44 KJAN 231803
RWRMS

MISSISSIPPI HOURLY WEATHER ROUNDUP
NATIONAL WEATHER SERVICE JACKSON MS
100 PM CDT WED JUL 23 2014

NOTE: "FAIR: INDICATES FEW OR NO CLOUDS BELOW 12,000 FEET WITH NO
SIGNIFICANT WEATHER AND/OR OBSTRUCTIONS TO VISIBILITY.

MSZ001>002-007>008-010>013-018>021-025>028-034>036-231900-
NORTHWEST MISSISSIPPI

CITY           SKY/WX    TMP DP  RH WIND       PRES   REMARKS
CLARKSDALE     FAIR      86  75  70 CALM      30.06F HX  95
CLEVELAND      FAIR      87  78  73 NW5       30.05S HX  99
GREENWOOD      MOSUNNY   87  74  64 S7        30.04F HX  95
6HR MIN TEMP:  72; 6HR MAX TEMP:  87;

GREENVILLE     PTSUNNY   89  73  59 N3        30.05F HX  97
6HR MIN TEMP:  73; 6HR MAX TEMP:  90;

GRENADA        FAIR      88  72  58 CALM      30.05F HX  94
OLIVE BRANCH   PTSUNNY   90  75  62 SW6       30.04F HX 100
OXFORD         PTSUNNY   84  70  61 W3        30.07F
TUNICA         CLEAR     88  73  62 W3        30.05F HX  96
$$

MSZ003>006-009-014>017-022>024-029>033-037>039-231900-
NORTHEAST MISSISSIPPI

CITY           SKY/WX    TMP DP  RH WIND       PRES   REMARKS
BELMONT        FAIR      85  74  70 S3        30.06F HX  92
COLUMBUS AFB   PTSUNNY   86  72  62 S3        30.05F HX  91
6HR MIN TEMP:  74; 6HR MAX TEMP:  86; 6HR PCP: TRACE;

CORINTH        FAIR      86  70  58 CALM      30.05F HX  90
GOLDN TRIANGLE PTSUNNY   88  72  58 S5        30.06F HX  94
STARKVILLE     FAIR      86  72  62 E3        30.05F HX  92
TUPELO         MOSUNNY   87  73  62 CALM      30.05F HX  94
6HR MIN TEMP:  74; 6HR MAX TEMP:  87;

$$

MSZ040-058-231900-
CENTRAL MISSISSIPPI

CITY           SKY/WX    TMP DP  RH WIND       PRES   REMARKS
JACKSON INTL   PTSUNNY   88  73  61 N6        30.06F HX  95
6HR MIN TEMP:  73; 6HR MAX TEMP:  88;

JACKSON HAWKNS PTSUNNY   85  71  63 CALM      30.07S HX  90
6HR MIN TEMP:  74; 6HR MAX TEMP:  85; 6HR PCP: TRACE;

MERIDIAN KEY   MOSUNNY   87  70  56 SE3       30.06F HX  92
6HR MIN TEMP:  68; 6HR MAX TEMP:  87;

MERIDIAN NAS   MOSUNNY   87  70  56 VRB3      30.07F HX  92
6HR MIN TEMP:  70; 6HR MAX TEMP:  87;

RAYMOND        FAIR      84  77  79 CALM      30.07S HX  94
VICKSBURG      CLOUDY    85  73  67 CALM      30.07S HX  91
6HR MIN TEMP:  72; 6HR MAX TEMP:  85;

$$

MSZ059>079-231900-
SOUTH MISSISSIPPI

CITY           SKY/WX    TMP DP  RH WIND       PRES   REMARKS
BROOKHAVEN     FAIR      84  72  65 E3        30.09S
COLUMBIA       FAIR      86  72  62 S3        30.05F HX  92
HATTIESBURG    SUNNY     86  73  65 CALM      30.07F HX  93
6HR MIN TEMP:  68; 6HR MAX TEMP:  86;

MCCOMB         MOSUNNY   86  68  54 VRB6      30.07S
6HR MIN TEMP:  67; 6HR MAX TEMP:  86;

NATCHEZ        MOSUNNY   84  73  70 N6        30.07F HX  91
6HR MIN TEMP:  70; 6HR MAX TEMP:  84;

PINE BELT      PTSUNNY   84  70  61 E5        30.08S
6HR MIN TEMP:  66; 6HR MAX TEMP:  84;

$$

MSZ080>082-231900-
COASTAL MISSISSIPPI

CITY           SKY/WX    TMP DP  RH WIND       PRES   REMARKS
BAY ST LOUIS   MOSUNNY  N/A N/A N/A S7        30.06F
BILOXI         CLOUDY    83  72  70 SE9       30.07S
6HR MIN TEMP:  71; 6HR MAX TEMP:  84;

PASCAGOULA     CLOUDY    80  73  79 S7        30.08R
6HR MIN TEMP:  71; 6HR MAX TEMP:  84; 6HR PCP: TRACE;

GULFPORT       CLOUDY    85  72  65 SE9       30.06F HX  91
6HR MIN TEMP:  73; 6HR MAX TEMP:  87;

$$



USA.gov is the U.S. government's official web portal to all federal, state and local government web resources and services.